[[{"header":{"parameterUnit":"m.s-1","parameterCategory":1,"la1":30.2991,"la2":30.254,"lo1":-89.0895,"lo2":-89.0444,"dy":0.0017,"dx":0.0017,"nx":28,"ny":28,"refTime":"2025-01-09T09:00:00:Z","depth":0,"parameterNumber":2,"parameterNumberName":"U-component_of_WINDS"},"data":[0,0,0,0,0,0,0,0,0,0,0,0,0,0,0,0,0,0,0,0,0,0,0,0,0,0,0,0,0,0,0,0,0,0,0,0,0,0,0,0,0,0,0,0,0,0,0,0,0,0,0,0,0,0,0,0,0,0,4.7536,4.7537,0,4.7616,4.7617,4.7618,4.7575,4.7573,4.757,4.7568,4.7648,4.7652,4.7656,0,0,0,0,0,0,0,0,0,0,0,0,0,4.7345,4.7348,4.7536,4.7537,4.7538,4.7616,4.7617,4.7618,4.7575,4.7573,4.757,4.7567,4.7646,4.7651,4.7656,0,0,0,0,0,0,0,0,0,0,0,0,0,4.7427,4.735,4.7536,4.7526,4.7526,4.7616,4.7617,4.7619,4.7576,4.7572,4.7569,4.7566,4.7645,4.7651,4.7657,4.776,0,0,4.7676,4.7679,0,0,0,0,0,0,0,0,4.7422,4.7434,4.7527,4.7527,4.7527,4.7582,4.7579,4.7666,4.7577,4.7557,4.7568,4.7565,4.7629,4.7636,4.7658,4.7764,4.7768,4.7677,4.768,4.7683,4.7685,0,0,0,0,0,0,0,4.7416,4.743,4.7568,4.7528,4.7528,4.7517,4.7525,4.7595,4.761,4.7558,4.7555,4.7566,4.7628,4.7652,4.7659,4.7769,4.7676,4.7682,4.7686,4.7688,4.7966,4.7969,0,0,0,0,0,0,4.7412,4.7426,4.7565,4.757,4.7466,4.7523,4.7532,4.7568,4.7609,4.7612,4.7568,4.7563,4.7643,4.7652,4.7662,4.7787,4.7683,4.7689,4.7692,4.7962,4.7966,4.797,0,0,0,0,0,0,4.7408,4.7424,4.7562,4.7497,4.7514,4.753,4.757,4.7571,4.7595,4.7617,4.7619,4.759,4.7641,4.7653,4.7737,4.7789,4.7692,4.7697,4.7958,4.7963,4.7968,4.8037,0,0,0,0,0,0,4.7402,4.7423,4.7463,4.7498,4.7518,4.7636,4.7574,4.7575,4.7606,4.76,4.7638,4.7641,4.7639,4.7728,4.7743,4.7796,4.7702,4.7953,4.796,4.7967,4.803,4.8044,4.8056,0,0,0,0,0,4.7396,4.7478,4.7465,4.7482,4.7568,4.7639,4.765,4.7647,4.7611,4.7651,4.7665,4.764,4.7781,4.7737,4.7754,4.7809,4.795,4.7958,4.7966,4.8024,4.8041,4.8055,0,0,0,0,0,0,4.7447,4.7482,4.7468,4.7565,4.76,4.7632,4.7682,4.7665,4.771,4.7702,4.7697,4.7705,4.7793,4.7809,4.7759,4.7912,4.786,4.7872,4.7898,4.7914,4.7927,4.7921,4.7707,0,0,0,0,0,4.7469,4.7525,4.7553,4.7635,4.7654,4.7665,4.7696,4.7691,4.7726,4.774,4.776,4.7795,4.7847,4.7882,4.7931,4.8032,4.804,4.8079,4.8092,4.8102,4.8112,4.8168,4.8186,4.7997,4.7997,4.7997,0,0,4.7516,4.7543,4.7578,4.7646,4.7673,4.773,4.7677,4.774,4.7783,4.775,4.783,4.7846,4.7885,4.7978,4.802,4.7994,4.8167,4.8113,4.8121,4.8125,4.8179,4.8196,4.8212,4.8003,4.8002,4.8001,0,0,4.7631,4.7657,4.7729,4.7757,4.7798,4.7805,4.7823,4.7858,4.7868,4.7949,4.7926,4.7976,4.8066,4.8095,4.8121,4.825,4.8229,4.8266,4.8334,4.8388,4.8403,4.8416,4.8463,4.8479,4.8277,4.8277,4.8277,0,4.7684,4.7771,4.7768,4.7833,4.7864,4.7839,4.7912,4.7939,4.7993,4.8015,4.7986,4.81,4.8124,4.8224,4.8256,4.8278,4.8297,4.8261,4.8401,4.8415,4.8427,4.8471,4.8488,4.8281,4.828,4.828,4.828,0,4.7834,4.7894,4.7948,4.8003,4.804,4.8109,4.8116,4.8154,4.8147,4.8158,4.8241,4.8269,4.8324,4.8348,4.834,4.8448,4.8431,4.8402,4.8349,4.8449,4.849,4.8507,4.8287,4.8286,4.8284,4.8283,0,0,4.7981,4.8036,4.8056,4.8081,4.8125,4.8172,4.824,4.8295,4.8328,4.8367,4.8424,4.8502,4.8477,4.8507,4.8502,4.8551,4.8652,4.8516,4.8517,4.854,4.8772,4.8793,4.8813,4.8638,4.8642,4.8644,4.8769,0,4.81,4.822,4.822,4.8331,4.8387,4.8364,4.8424,4.8458,4.847,4.8519,4.8532,4.8588,4.8549,4.8568,4.8614,4.8629,4.8698,4.862,4.8691,4.8694,4.8682,4.8834,4.8857,4.8973,4.8785,4.8788,4.879,0,4.8253,4.8299,4.8416,4.8453,4.8477,4.8531,4.8582,4.863,4.8668,4.8673,4.8708,4.8697,4.8767,4.8713,4.8809,4.8756,4.8786,4.8798,4.8802,4.8808,4.8747,4.8844,4.901,4.9027,4.8815,4.8813,4.8811,0,4.835,4.844,4.8522,4.8545,4.8591,4.8629,4.865,4.8685,4.8719,4.8764,4.8785,4.8838,4.8866,4.8907,4.891,4.8871,4.9007,4.8954,4.9014,4.9014,4.9043,4.9041,4.9215,4.9062,4.9062,4.9062,4.9061,0,4.8481,4.8553,4.8566,4.8617,4.8697,4.8697,4.8777,4.8794,4.8826,4.888,4.8863,4.8913,4.8915,4.8967,4.897,4.905,4.9063,4.9069,4.9069,4.907,4.907,4.9089,4.9081,4.9066,4.9065,4.9064,4.9064,0,4.8602,4.8614,4.8701,4.8739,4.875,4.8808,4.8839,4.8887,4.8899,4.8967,4.8982,4.9,4.906,4.9069,4.9138,4.9141,4.9236,4.9228,4.9224,4.9222,4.9282,4.9276,4.9475,4.9501,4.9331,4.9333,4.9334,0,4.8685,4.8741,4.8784,4.882,4.8843,4.8899,4.8934,4.8937,4.8974,4.9023,4.9065,4.9124,4.9171,4.9268,4.9287,4.9341,4.9333,4.9399,4.9341,4.9341,4.9334,4.9331,4.9337,4.941,4.9412,4.9413,4.9414,0,4.8832,4.8835,4.8886,4.8941,4.8983,4.9026,4.9065,4.9095,4.9103,4.9145,4.9207,4.9244,4.9317,4.9375,4.9429,4.945,4.9434,4.9433,4.945,4.9451,4.9447,4.945,4.9254,4.9428,4.9427,4.9426,4.9425,4.9424,4.8936,4.8985,4.9024,4.9082,4.9113,4.9151,4.9199,4.9217,4.9269,4.9329,4.9327,4.9395,4.9433,4.9504,4.9529,4.9582,4.9561,4.9585,4.9591,4.9597,4.9603,4.9439,4.9592,4.9592,4.9591,4.9591,4.9591,0,4.9082,4.9106,4.916,4.9217,4.9264,4.9246,4.929,4.9329,4.939,4.9427,4.9475,4.9546,4.9604,4.9628,4.9684,4.9722,4.9717,4.9737,4.9734,4.9739,4.9619,4.9599,4.9741,4.9741,4.9741,4.9741,4.9741,4.9741,4.9163,4.9245,4.9253,4.935,4.9374,4.9442,4.9469,4.9504,4.9534,4.9615,4.9663,4.9679,4.9712,4.977,4.9822,4.9828,4.9849,4.9873,4.9876,4.9763,4.9748,4.9733,4.9714,4.9878,4.9878,4.9992,4.9993,4.9993]},{"header":{"parameterUnit":"m.s-1","parameterCategory":1,"la1":30.2991,"la2":30.254,"lo1":-89.0895,"lo2":-89.0444,"dy":0.0017,"dx":0.0017,"nx":28,"ny":28,"refTime":"2025-01-09T09:00:00:Z","depth":0,"parameterNumber":3,"parameterNumberName":"V-component_of_WINDS"},"data":[0,0,0,0,0,0,0,0,0,0,0,0,0,0,0,0,0,0,0,0,0,0,0,0,0,0,0,0,0,0,0,0,0,0,0,0,0,0,0,0,0,0,0,0,0,0,0,0,0,0,0,0,0,0,0,0,0,0,-5.5942,-5.5944,0,-5.6083,-5.6084,-5.6086,-5.6062,-5.606,-5.6058,-5.6055,-5.6197,-5.6203,-5.6209,0,0,0,0,0,0,0,0,0,0,0,0,0,-5.5652,-5.5657,-5.5942,-5.5944,-5.5946,-5.6082,-5.6084,-5.6086,-5.6063,-5.606,-5.6057,-5.6054,-5.6195,-5.6202,-5.6209,0,0,0,0,0,0,0,0,0,0,0,0,0,-5.5784,-5.5659,-5.5942,-5.595,-5.5953,-5.6082,-5.6084,-5.6087,-5.6063,-5.606,-5.6056,-5.6053,-5.6193,-5.6201,-5.621,-5.6339,0,0,-5.6238,-5.6242,0,0,0,0,0,0,0,0,-5.5776,-5.5794,-5.5947,-5.595,-5.5953,-5.6051,-5.6034,-5.6171,-5.6064,-5.6021,-5.6055,-5.6051,-5.6151,-5.6163,-5.6198,-5.6346,-5.6352,-5.6239,-5.6244,-5.6248,-5.6251,0,0,0,0,0,0,0,-5.5767,-5.5788,-5.5998,-5.595,-5.5953,-5.5947,-5.5961,-5.606,-5.6105,-5.6025,-5.6023,-5.604,-5.6152,-5.6189,-5.6201,-5.6354,-5.6239,-5.6247,-5.6252,-5.6256,-5.6616,-5.662,0,0,0,0,0,0,-5.5756,-5.5781,-5.5993,-5.6002,-5.5854,-5.5955,-5.5971,-5.6023,-5.6104,-5.6113,-5.6043,-5.6039,-5.6175,-5.619,-5.6206,-5.6363,-5.6248,-5.6257,-5.6262,-5.6612,-5.6617,-5.6621,0,0,0,0,0,0,-5.5749,-5.5775,-5.5987,-5.5891,-5.5918,-5.5964,-5.6022,-5.6028,-5.6065,-5.6118,-5.6126,-5.6073,-5.6173,-5.6193,-5.6307,-5.6367,-5.6261,-5.6269,-5.6607,-5.6613,-5.6619,-5.6677,0,0,0,0,0,0,-5.5741,-5.5773,-5.5822,-5.5892,-5.5923,-5.6087,-5.6026,-5.6033,-5.6081,-5.6076,-5.6148,-5.6156,-5.6172,-5.6293,-5.6316,-5.6378,-5.6276,-5.6602,-5.661,-5.6617,-5.667,-5.6684,-5.6697,0,0,0,0,0,-5.5731,-5.5833,-5.5825,-5.5851,-5.5986,-5.609,-5.6107,-5.6124,-5.6086,-5.6136,-5.617,-5.6154,-5.6357,-5.6305,-5.633,-5.6396,-5.6598,-5.6607,-5.6616,-5.6664,-5.6682,-5.6697,0,0,0,0,0,0,-5.5768,-5.5842,-5.5834,-5.5962,-5.602,-5.6086,-5.615,-5.6142,-5.6211,-5.6204,-5.6221,-5.6237,-5.6353,-5.6385,-5.6326,-5.6525,-5.6472,-5.6487,-5.65,-5.6517,-5.653,-5.652,-5.6283,0,0,0,0,0,-5.5791,-5.5869,-5.593,-5.6036,-5.6066,-5.6103,-5.6149,-5.6157,-5.6217,-5.6241,-5.6284,-5.6343,-5.642,-5.647,-5.6544,-5.6675,-5.669,-5.6732,-5.6746,-5.6757,-5.6769,-5.6841,-5.6861,-5.6652,-5.6652,-5.6651,0,0,-5.5839,-5.5889,-5.5938,-5.6045,-5.6091,-5.6172,-5.6124,-5.6211,-5.6271,-5.6254,-5.6365,-5.6398,-5.6465,-5.6588,-5.6644,-5.6619,-5.683,-5.6768,-5.6777,-5.6783,-5.6853,-5.6873,-5.689,-5.6658,-5.6657,-5.6656,0,0,-5.5968,-5.6014,-5.6108,-5.6156,-5.6226,-5.625,-5.6273,-5.6341,-5.6363,-5.6474,-5.6463,-5.6534,-5.6667,-5.6715,-5.6757,-5.6906,-5.6893,-5.6929,-5.7,-5.707,-5.7086,-5.7101,-5.7154,-5.7173,-5.6942,-5.6942,-5.6942,0,-5.6019,-5.6141,-5.6157,-5.6246,-5.6294,-5.6284,-5.6379,-5.6424,-5.6515,-5.6548,-5.6519,-5.6685,-5.6729,-5.6864,-5.69,-5.6935,-5.6961,-5.6921,-5.7083,-5.7098,-5.7112,-5.7163,-5.7183,-5.6946,-5.6945,-5.6945,-5.6944,0,-5.62,-5.6285,-5.6352,-5.6441,-5.6496,-5.6588,-5.6618,-5.6672,-5.6676,-5.6703,-5.6816,-5.6869,-5.6954,-5.6986,-5.699,-5.7122,-5.7104,-5.7079,-5.7026,-5.7135,-5.7184,-5.7203,-5.6951,-5.695,-5.6949,-5.6948,0,0,-5.6355,-5.6453,-5.6478,-5.6519,-5.6596,-5.6662,-5.6753,-5.6837,-5.6883,-5.6946,-5.7023,-5.7136,-5.7114,-5.7161,-5.717,-5.7232,-5.7347,-5.7199,-5.7201,-5.7225,-5.7496,-5.7515,-5.7537,-5.734,-5.7343,-5.7346,-5.7491,0,-5.6492,-5.6654,-5.6672,-5.6817,-5.6895,-5.6887,-5.6967,-5.7023,-5.7051,-5.7122,-5.7152,-5.7232,-5.7196,-5.7225,-5.7286,-5.732,-5.7402,-5.731,-5.7411,-5.7415,-5.7395,-5.7562,-5.7582,-5.7716,-5.751,-5.7513,-5.7515,0,-5.6673,-5.6742,-5.6895,-5.6963,-5.6997,-5.7068,-5.7147,-5.7214,-5.7278,-5.7294,-5.7348,-5.7349,-5.7443,-5.7387,-5.7517,-5.7454,-5.7497,-5.752,-5.7526,-5.7535,-5.7471,-5.7577,-5.7759,-5.7779,-5.7545,-5.7543,-5.754,0,-5.6771,-5.6903,-5.7012,-5.7047,-5.7128,-5.7179,-5.7215,-5.7275,-5.7325,-5.7393,-5.7426,-5.7504,-5.7547,-5.7608,-5.763,-5.7587,-5.7759,-5.7704,-5.7775,-5.7775,-5.7811,-5.7809,-5.8003,-5.7839,-5.7839,-5.7838,-5.7838,0,-5.6922,-5.7016,-5.7057,-5.7124,-5.7229,-5.7249,-5.7352,-5.7386,-5.744,-5.7513,-5.751,-5.7579,-5.7604,-5.7677,-5.7695,-5.78,-5.7819,-5.7835,-5.7838,-5.7835,-5.7833,-5.7863,-5.7854,-5.7843,-5.7842,-5.7841,-5.784,0,-5.705,-5.7081,-5.7199,-5.7267,-5.7287,-5.7361,-5.7419,-5.7483,-5.7511,-5.7604,-5.7626,-5.7669,-5.7755,-5.7783,-5.7887,-5.7899,-5.8021,-5.8017,-5.8,-5.8001,-5.807,-5.8063,-5.829,-5.8321,-5.8137,-5.8138,-5.814,0,-5.7144,-5.7216,-5.7292,-5.7342,-5.738,-5.7459,-5.751,-5.7532,-5.7585,-5.7664,-5.7719,-5.7804,-5.7873,-5.801,-5.8051,-5.813,-5.8127,-5.8201,-5.8139,-5.8134,-5.8129,-5.8124,-5.8132,-5.8213,-5.8215,-5.8216,-5.8218,0,-5.7308,-5.732,-5.7394,-5.7474,-5.7535,-5.7599,-5.766,-5.7701,-5.7732,-5.7792,-5.788,-5.7934,-5.804,-5.8125,-5.8206,-5.8242,-5.8236,-5.8237,-5.8258,-5.8255,-5.8243,-5.8251,-5.8032,-5.8232,-5.823,-5.8229,-5.8228,-5.8228,-5.7422,-5.7486,-5.755,-5.7633,-5.7682,-5.7739,-5.7804,-5.784,-5.7914,-5.8003,-5.8011,-5.8106,-5.8168,-5.8277,-5.8318,-5.8392,-5.8371,-5.8401,-5.8408,-5.8415,-5.8421,-5.8231,-5.8407,-5.8406,-5.8406,-5.8406,-5.8405,0,-5.7586,-5.7627,-5.7703,-5.779,-5.7855,-5.7844,-5.7912,-5.7967,-5.8051,-5.811,-5.8178,-5.828,-5.8362,-5.8409,-5.8492,-5.8542,-5.8541,-5.8563,-5.8559,-5.8568,-5.8435,-5.8409,-5.8562,-5.8562,-5.8562,-5.8562,-5.8562,-5.8562,-5.7679,-5.7787,-5.7807,-5.794,-5.798,-5.8074,-5.8114,-5.8167,-5.8214,-5.8328,-5.8397,-5.8427,-5.8482,-5.8568,-5.8643,-5.8655,-5.8685,-5.871,-5.8719,-5.8594,-5.8577,-5.8562,-5.8538,-5.8716,-5.8716,-5.8847,-5.8848,-5.8849]}]]